SEP2777 OPFA-OEDF

Flight info

Callsign SEP2777
Flight time 4h 1m
Altitude 40000
Route MIMAL G214 PG T385 TAPDO DCT KEBAS DCT KUROV L883 SITOL/N0458F280 L883 EGSAB/N0477F400 DCT MEVDO/N0456F280 Y511 BOSOB M321 RESAL/N0470F390
Aircraft A332/H-SDE3GHIJ2J3J5M1RVWXY/LB2D1

Departure

Time 2026-04-24 16:56
Airport Faisalabad International Airport (OPFA)

Arrival

Time 2026-04-24 20:58
Airport King Fahd International Airport (OEDF)
Time Latitude Longitude Altitude Speed Heading
2026-04-24 16:20 31.36228 72.98834 621 ft 0 kts 310°
2026-04-24 16:43 31.36223 72.98842 622 ft 2 kts 310°
2026-04-24 16:43 31.36212 72.98856 621 ft 2 kts 310°
2026-04-24 16:44 31.36207 72.98861 621 ft 0 kts 298°
2026-04-24 16:44 31.36205 72.98863 621 ft 0 kts 279°
2026-04-24 16:44 31.36203 72.98866 621 ft 0 kts 259°
2026-04-24 16:44 31.36203 72.98869 621 ft 0 kts 238°
2026-04-24 16:45 31.36203 72.98872 621 ft 0 kts 220°
2026-04-24 16:45 31.36211 72.98879 621 ft 2 kts 220°
2026-04-24 16:45 31.36220 72.98888 621 ft 2 kts 215°
2026-04-24 16:45 31.36226 72.98894 621 ft 0 kts 221°
2026-04-24 16:47 31.36220 72.98887 621 ft 2 kts 221°
2026-04-24 16:48 31.36202 72.98872 621 ft 4 kts 210°
2026-04-24 16:48 31.36172 72.98866 618 ft 5 kts 182°
2026-04-24 16:48 31.36129 72.98874 612 ft 7 kts 168°
2026-04-24 16:48 31.36075 72.98886 621 ft 9 kts 169°
2026-04-24 16:49 31.36007 72.98900 604 ft 11 kts 169°
2026-04-24 16:49 31.35924 72.98918 603 ft 13 kts 170°
2026-04-24 16:49 31.35858 72.98939 603 ft 7 kts 142°
2026-04-24 16:49 31.35851 72.98981 603 ft 4 kts 56°
2026-04-24 16:50 31.35869 72.98994 603 ft 5 kts 31°
2026-04-24 16:50 31.35920 72.99038 603 ft 8 kts 37°
2026-04-24 16:50 31.35971 72.99082 603 ft 10 kts 36°
2026-04-24 16:50 31.36032 72.99133 602 ft 12 kts 36°
2026-04-24 16:51 31.36106 72.99196 602 ft 14 kts 36°
2026-04-24 16:51 31.36189 72.99267 602 ft 16 kts 36°
2026-04-24 16:51 31.36295 72.99358 604 ft 22 kts 36°
2026-04-24 16:51 31.36438 72.99480 618 ft 28 kts 36°
2026-04-24 16:52 31.36612 72.99628 620 ft 33 kts 36°
2026-04-24 16:52 31.36798 72.99788 615 ft 33 kts 36°
2026-04-24 16:52 31.36987 72.99949 603 ft 34 kts 36°
2026-04-24 16:52 31.37177 73.00111 603 ft 34 kts 36°
2026-04-24 16:53 31.37366 73.00271 604 ft 33 kts 38°
2026-04-24 16:53 31.37469 73.00384 621 ft 14 kts 63°
2026-04-24 16:53 31.37515 73.00454 615 ft 9 kts
2026-04-24 16:53 31.37547 73.00422 604 ft 2 kts 273°
2026-04-24 16:54 31.37543 73.00417 604 ft 0 kts 239°
2026-04-24 16:54 31.37539 73.00415 604 ft 1 kts 219°
2026-04-24 16:54 31.37523 73.00406 619 ft 4 kts 209°
2026-04-24 16:54 31.37504 73.00391 621 ft 0 kts 217°
2026-04-24 16:55 31.37489 73.00378 617 ft 10 kts 217°
2026-04-24 16:55 31.37292 73.00209 604 ft 67 kts 216°
2026-04-24 16:56 31.36742 72.99739 613 ft 127 kts 216°
2026-04-24 16:56 31.35897 72.99018 631 ft 177 kts 216°
2026-04-24 16:56 31.34890 72.98167 1345 ft 174 kts 216°
2026-04-24 16:56 31.33813 72.97559 2073 ft 170 kts 194°
2026-04-24 16:57 31.32708 72.97237 2797 ft 161 kts 197°
2026-04-24 16:57 31.31601 72.96925 3291 ft 165 kts 197°
2026-04-24 16:57 31.30487 72.96602 3789 ft 169 kts 197°
2026-04-24 16:57 31.29279 72.96232 4089 ft 192 kts 198°
2026-04-24 16:58 31.27893 72.95793 4361 ft 220 kts 198°
2026-04-24 16:58 31.26335 72.95296 4638 ft 244 kts 197°
2026-04-24 16:58 31.24629 72.94752 4888 ft 263 kts 197°
2026-04-24 16:58 31.22822 72.94177 5340 ft 272 kts 197°
2026-04-24 16:59 31.20982 72.93593 5949 ft 275 kts 197°
2026-04-24 16:59 31.19127 72.93004 6586 ft 277 kts 197°
2026-04-24 16:59 31.15370 72.91807 7822 ft 281 kts 197°
2026-04-24 17:00 31.13504 72.91211 8518 ft 281 kts 198°
2026-04-24 17:00 31.09730 72.89962 9941 ft 283 kts 199°
2026-04-24 17:00 31.07785 72.89309 10269 ft 299 kts 199°
2026-04-24 17:01 31.03555 72.87890 10691 ft 333 kts 198°
2026-04-24 17:01 31.01279 72.87130 10894 ft 348 kts 198°
2026-04-24 17:02 30.97319 72.85811 11476 ft 361 kts 198°
2026-04-24 17:02 30.94098 72.84740 12185 ft 365 kts 198°
2026-04-24 17:02 30.91649 72.83925 12729 ft 367 kts 198°
2026-04-24 17:02 30.89178 72.83086 13221 ft 371 kts 199°
2026-04-24 17:03 30.85223 72.81086 14060 ft 374 kts 208°
2026-04-24 17:03 30.82176 72.79145 14687 ft 378 kts 211°
2026-04-24 17:03 30.79890 72.77603 15154 ft 381 kts 212°
2026-04-24 17:04 30.78340 72.76544 15472 ft 383 kts 212°
2026-04-24 17:04 30.73729 72.73420 16382 ft 389 kts 212°
2026-04-24 17:04 30.71364 72.71841 16817 ft 392 kts 212°
2026-04-24 17:05 30.68989 72.70267 17266 ft 394 kts 212°
2026-04-24 17:05 30.66593 72.68689 17701 ft 397 kts 212°
2026-04-24 17:05 30.61744 72.65505 18460 ft 403 kts 212°
2026-04-24 17:06 30.59291 72.63896 18741 ft 408 kts 212°
2026-04-24 17:06 30.54315 72.60633 19427 ft 413 kts 212°
2026-04-24 17:06 30.51808 72.58992 19790 ft 414 kts 212°
2026-04-24 17:07 30.49319 72.57362 20123 ft 416 kts 212°
2026-04-24 17:07 30.46791 72.55707 20450 ft 419 kts 212°
2026-04-24 17:07 30.41681 72.52365 21078 ft 424 kts 212°
2026-04-24 17:08 30.36518 72.48991 21713 ft 428 kts 212°
2026-04-24 17:08 30.33913 72.47291 22028 ft 431 kts 212°
2026-04-24 17:08 30.31292 72.45581 22314 ft 433 kts 212°
2026-04-24 17:09 30.25984 72.42121 22728 ft 443 kts 212°
2026-04-24 17:09 30.20547 72.38582 23052 ft 452 kts 211°
2026-04-24 17:10 30.17829 72.36815 23303 ft 455 kts 211°
2026-04-24 17:10 30.09486 72.31399 24004 ft 460 kts 212°
2026-04-24 17:11 30.01058 72.25937 24744 ft 465 kts 212°
2026-04-24 17:12 29.87097 72.16341 26009 ft 469 kts 223°
2026-04-24 18:54 23.42242 59.76993 39859 ft 469 kts 239°
2026-04-24 18:55 23.36672 59.68231 39864 ft 469 kts 239°
2026-04-24 18:56 23.32962 59.62401 39857 ft 469 kts 239°
2026-04-24 18:56 23.29259 59.56590 39859 ft 470 kts 239°
2026-04-24 18:57 23.25524 59.50735 39860 ft 470 kts 239°
2026-04-24 18:57 23.21796 59.44899 39860 ft 470 kts 239°
2026-04-24 18:58 23.18085 59.39095 39857 ft 470 kts 239°
2026-04-24 18:58 23.14353 59.33265 39866 ft 470 kts 239°
2026-04-24 18:59 23.10620 59.27441 39864 ft 470 kts 239°
2026-04-24 18:59 23.06884 59.21619 39895 ft 469 kts 239°
2026-04-24 19:00 23.03143 59.15794 39890 ft 469 kts 239°
2026-04-24 19:00 22.99431 59.10021 39911 ft 469 kts 239°
2026-04-24 19:01 22.95692 59.04212 39909 ft 469 kts 239°
2026-04-24 19:01 22.91939 58.98391 39918 ft 469 kts 239°
2026-04-24 19:02 22.88823 58.93559 39929 ft 470 kts 239°
2026-04-24 19:02 22.84458 58.86800 39926 ft 471 kts 239°
2026-04-24 19:03 22.80695 58.80982 39933 ft 471 kts 239°
2026-04-24 19:03 22.76927 58.75161 39929 ft 471 kts 239°
2026-04-24 19:04 22.73162 58.69351 39927 ft 471 kts 239°
2026-04-24 19:04 22.69398 58.63550 39925 ft 471 kts 239°
2026-04-24 19:05 22.65626 58.57742 39921 ft 471 kts 239°
2026-04-24 19:05 22.61877 58.51976 39923 ft 471 kts 239°
2026-04-24 19:06 22.58104 58.46180 39914 ft 471 kts 239°
2026-04-24 19:06 22.54333 58.40393 39914 ft 470 kts 239°
2026-04-24 19:07 22.50560 58.34610 39913 ft 470 kts 239°
2026-04-24 19:07 22.47417 58.29798 39913 ft 471 kts 239°
2026-04-24 19:08 22.42998 58.23037 39913 ft 471 kts 239°
2026-04-24 19:08 22.39209 58.17248 39911 ft 471 kts 239°
2026-04-24 19:09 22.35426 58.11475 39907 ft 471 kts 239°
2026-04-24 19:09 22.31642 58.05706 39905 ft 471 kts 239°
2026-04-24 19:10 22.27855 57.99938 39904 ft 471 kts 239°
2026-04-24 19:10 22.24065 57.94173 39897 ft 471 kts 239°
2026-04-24 19:11 22.20278 57.88418 39896 ft 470 kts 239°
2026-04-24 19:11 22.16485 57.82661 39898 ft 470 kts 239°
2026-04-24 19:12 22.12718 57.76948 39899 ft 470 kts 239°
2026-04-24 19:12 22.08930 57.71209 39897 ft 470 kts 239°
2026-04-24 19:13 22.05771 57.66429 39892 ft 469 kts 239°
2026-04-24 19:13 22.01341 57.59736 39893 ft 467 kts 240°
2026-04-24 19:14 21.97596 57.54081 39891 ft 466 kts 240°
2026-04-24 19:14 21.93830 57.48399 39892 ft 466 kts 240°
2026-04-24 19:15 21.90059 57.42716 39889 ft 466 kts 240°
2026-04-24 19:15 21.86284 57.37033 39881 ft 466 kts 240°
2026-04-24 19:16 21.80625 57.28527 39885 ft 465 kts 240°
2026-04-24 19:16 21.76883 57.22909 39881 ft 465 kts 240°
2026-04-24 19:17 21.73133 57.17242 39881 ft 463 kts 243°
2026-04-24 19:17 21.69844 57.11322 39880 ft 460 kts 245°
2026-04-24 19:18 21.66675 57.05350 39873 ft 459 kts 246°
2026-04-24 19:18 21.63531 56.99370 39872 ft 459 kts 246°
2026-04-24 19:19 21.60398 56.93427 39866 ft 459 kts 245°
2026-04-24 19:19 21.57247 56.87472 39868 ft 459 kts 245°
2026-04-24 19:20 21.54088 56.81515 39866 ft 458 kts 245°
2026-04-24 19:20 21.50927 56.75563 39866 ft 457 kts 245°
2026-04-24 19:21 21.47790 56.69658 39864 ft 457 kts 245°
2026-04-24 19:21 21.44633 56.63723 39860 ft 457 kts 245°
2026-04-24 19:22 21.41476 56.57795 39861 ft 457 kts 245°
2026-04-24 19:22 21.38332 56.51899 39860 ft 456 kts 245°
2026-04-24 19:23 21.35183 56.46000 39861 ft 455 kts 245°
2026-04-24 19:23 21.32032 56.40101 39857 ft 455 kts 245°
2026-04-24 19:24 21.29070 56.34109 39859 ft 450 kts 253°
2026-04-24 19:24 21.27671 56.28806 39857 ft 441 kts 265°
2026-04-24 19:25 21.27291 56.21211 39857 ft 438 kts 272°
2026-04-24 19:25 21.27285 56.14686 39860 ft 438 kts 273°
2026-04-24 19:26 21.27295 56.09254 39863 ft 438 kts 272°
2026-04-24 19:26 21.27279 56.02728 39857 ft 438 kts 272°
2026-04-24 19:27 21.27240 55.96202 39859 ft 438 kts 272°
2026-04-24 19:27 21.27194 55.89664 39858 ft 438 kts 272°
2026-04-24 19:28 21.27145 55.83134 39855 ft 438 kts 272°
2026-04-24 19:28 21.27093 55.76603 39859 ft 438 kts 272°
2026-04-24 19:29 21.27013 55.66860 39864 ft 437 kts 272°
2026-04-24 19:30 21.26956 55.60344 39856 ft 437 kts 272°
2026-04-24 19:30 21.26897 55.53819 39854 ft 437 kts 272°
2026-04-24 19:31 21.26835 55.47303 39854 ft 436 kts 272°
2026-04-24 19:31 21.26820 55.40839 39850 ft 435 kts 274°
2026-04-24 19:32 21.27144 55.34369 39849 ft 434 kts 276°
2026-04-24 19:32 21.27580 55.27936 39848 ft 434 kts 276°
2026-04-24 19:33 21.27997 55.21479 39847 ft 434 kts 276°
2026-04-24 19:33 21.28385 55.15006 39843 ft 433 kts 276°
2026-04-24 19:34 21.28758 55.08560 39845 ft 433 kts 276°
2026-04-24 19:34 21.29126 55.02152 39844 ft 433 kts 276°
2026-04-24 19:35 21.29494 54.95706 39843 ft 433 kts 276°
2026-04-24 19:35 21.29861 54.89251 39851 ft 432 kts 276°
2026-04-24 19:36 21.30224 54.82840 39845 ft 432 kts 276°
2026-04-24 19:36 21.30586 54.76395 39844 ft 432 kts 276°
2026-04-24 19:37 21.30944 54.69959 39838 ft 432 kts 276°
2026-04-24 19:37 21.31300 54.63532 39841 ft 432 kts 276°
2026-04-24 19:38 21.31654 54.57103 39838 ft 431 kts 276°
2026-04-24 19:38 21.32007 54.50679 39845 ft 432 kts 276°
2026-04-24 19:39 21.32359 54.44250 39841 ft 432 kts 276°
2026-04-24 19:39 21.32708 54.37817 39846 ft 431 kts 275°
2026-04-24 19:40 21.33052 54.31428 39843 ft 432 kts 275°
2026-04-24 19:40 21.33397 54.24989 39843 ft 432 kts 275°
2026-04-24 19:41 21.33739 54.18550 39846 ft 431 kts 275°
2026-04-24 19:41 21.34077 54.12128 39853 ft 431 kts 275°
2026-04-24 19:42 21.34413 54.05709 39846 ft 431 kts 275°
2026-04-24 19:42 21.34745 53.99323 39849 ft 431 kts 275°
2026-04-24 19:43 21.35073 53.92911 39851 ft 430 kts 275°
2026-04-24 19:43 21.35398 53.86507 39844 ft 429 kts 275°
2026-04-24 19:44 21.35721 53.80101 39851 ft 430 kts 275°
2026-04-24 19:44 21.36042 53.73692 39850 ft 430 kts 275°
2026-04-24 19:45 21.36357 53.67335 39845 ft 428 kts 275°
2026-04-24 19:45 21.36672 53.60953 39843 ft 428 kts 275°
2026-04-24 19:46 21.36984 53.54567 39839 ft 428 kts 275°
2026-04-24 19:46 21.37295 53.48176 39845 ft 428 kts 275°
2026-04-24 19:47 21.37600 53.41832 39841 ft 428 kts 275°
2026-04-24 19:47 21.37904 53.35458 39840 ft 428 kts 275°
2026-04-24 19:48 21.38207 53.29067 39844 ft 428 kts 275°
2026-04-24 19:48 21.38654 53.19532 39840 ft 427 kts 275°
2026-04-24 19:49 21.39243 53.06802 39842 ft 427 kts 275°
2026-04-24 19:50 21.39823 52.94059 39846 ft 427 kts 275°
2026-04-24 19:51 21.40249 52.84548 39840 ft 427 kts 275°
2026-04-24 19:52 21.40672 52.74991 39842 ft 427 kts 275°
2026-04-24 19:52 21.40949 52.68670 39842 ft 426 kts 275°
2026-04-24 19:53 21.41441 52.62341 39847 ft 424 kts 282°
2026-04-24 19:54 21.44297 52.53381 39842 ft 424 kts 292°
2026-04-24 19:54 21.46661 52.47578 39843 ft 424 kts 293°
2026-04-24 19:55 21.48651 52.42759 39843 ft 424 kts 293°
2026-04-24 19:55 21.51427 52.35971 39842 ft 424 kts 293°
2026-04-24 19:56 21.53770 52.30188 39846 ft 424 kts 293°
2026-04-24 19:56 21.56123 52.24365 39845 ft 424 kts 292°
2026-04-24 19:57 21.58470 52.18548 39849 ft 424 kts 292°
2026-04-24 19:57 21.60803 52.12763 39851 ft 425 kts 292°
2026-04-24 19:58 21.63151 52.06932 39849 ft 425 kts 292°
2026-04-24 19:58 21.65498 52.01098 39848 ft 424 kts 292°
2026-04-24 19:59 21.67837 51.95279 39856 ft 424 kts 292°
2026-04-24 19:59 21.70172 51.89459 39856 ft 424 kts 292°
2026-04-24 20:00 21.72491 51.83674 39866 ft 424 kts 292°
2026-04-24 20:00 21.74824 51.77849 39862 ft 423 kts 292°
2026-04-24 20:01 21.77149 51.72036 39857 ft 422 kts 292°
2026-04-24 20:01 21.79469 51.66225 39860 ft 422 kts 292°
2026-04-24 20:02 21.81396 51.61397 39863 ft 422 kts 292°
2026-04-24 20:02 21.84102 51.54605 39859 ft 422 kts 291°
2026-04-24 20:03 21.86394 51.48847 39864 ft 421 kts 291°
2026-04-24 20:03 21.88762 51.42890 39869 ft 421 kts 291°
2026-04-24 20:04 21.91068 51.37081 39875 ft 422 kts 291°
2026-04-24 20:04 21.93377 51.31259 39873 ft 422 kts 291°
2026-04-24 20:05 21.95670 51.25470 39873 ft 422 kts 291°
2026-04-24 20:05 21.97972 51.19649 39878 ft 422 kts 291°
2026-04-24 20:06 22.00275 51.13828 39879 ft 422 kts 291°
2026-04-24 20:06 22.02573 51.08008 39880 ft 422 kts 291°
2026-04-24 20:07 22.04483 51.03166 39881 ft 423 kts 291°
2026-04-24 20:07 22.07156 50.96377 39876 ft 423 kts 291°
2026-04-24 20:08 22.09454 50.90532 39881 ft 423 kts 291°
2026-04-24 20:08 22.11361 50.85676 39886 ft 423 kts 291°
2026-04-24 20:09 22.13651 50.79841 39886 ft 422 kts 291°
2026-04-24 20:09 22.15939 50.74001 39885 ft 422 kts 291°
2026-04-24 20:10 22.18228 50.68152 39883 ft 422 kts 291°
2026-04-24 20:10 22.20495 50.62350 39879 ft 422 kts 291°
2026-04-24 20:11 22.22772 50.56519 39882 ft 420 kts 291°
2026-04-24 20:11 22.25039 50.50704 39880 ft 420 kts 291°
2026-04-24 20:12 22.27306 50.44890 39885 ft 420 kts 291°
2026-04-24 20:12 22.29563 50.39102 39886 ft 419 kts 291°
2026-04-24 20:13 22.31826 50.33297 39884 ft 418 kts 291°
2026-04-24 20:13 22.34099 50.27508 39890 ft 418 kts 291°
2026-04-24 20:14 22.36384 50.21720 39889 ft 418 kts 291°
2026-04-24 20:14 22.38654 50.15969 39889 ft 418 kts 291°
2026-04-24 20:15 22.40939 50.10187 39886 ft 418 kts 291°
2026-04-24 20:15 22.43226 50.04399 39886 ft 418 kts 291°
2026-04-24 20:16 22.45512 49.98622 39891 ft 418 kts 291°
2026-04-24 20:16 22.47786 49.92865 39888 ft 418 kts 291°
2026-04-24 20:17 22.50067 49.87090 39891 ft 417 kts 291°
2026-04-24 20:17 22.53490 49.78427 39889 ft 417 kts 291°
2026-04-24 20:18 22.55777 49.72647 39892 ft 417 kts 291°
2026-04-24 20:18 22.58054 49.66927 39892 ft 416 kts 291°
2026-04-24 20:19 22.60351 49.61166 39889 ft 416 kts 291°
2026-04-24 20:19 22.62664 49.55411 39891 ft 417 kts 291°
2026-04-24 20:20 22.64976 49.49694 39892 ft 417 kts 291°
2026-04-24 20:20 22.67315 49.43961 39888 ft 416 kts 291°
2026-04-24 20:21 22.69657 49.38227 39890 ft 416 kts 291°
2026-04-24 20:21 22.72002 49.32484 39892 ft 416 kts 291°
2026-04-24 20:22 22.74351 49.26752 39894 ft 416 kts 291°
2026-04-24 20:22 22.76708 49.21058 39893 ft 416 kts 291°
2026-04-24 20:23 22.79087 49.15327 39897 ft 416 kts 291°
2026-04-24 20:23 22.81467 49.09600 39893 ft 416 kts 291°
2026-04-24 20:24 22.83853 49.03871 39904 ft 416 kts 291°
2026-04-24 20:24 22.86274 48.98159 39895 ft 418 kts 294°
2026-04-24 20:25 22.89541 48.92909 39911 ft 425 kts 307°
2026-04-24 20:25 22.94100 48.88755 39906 ft 440 kts 322°
2026-04-24 20:26 22.99862 48.86190 39910 ft 459 kts 339°
2026-04-24 20:26 23.03058 48.85671 39908 ft 471 kts 348°
2026-04-24 20:26 23.06372 48.85732 39907 ft 483 kts 358°
2026-04-24 20:27 23.09712 48.86433 39911 ft 494 kts
2026-04-24 20:27 23.13032 48.87445 39916 ft 497 kts
2026-04-24 20:27 23.19682 48.89574 39914 ft 498 kts
2026-04-24 20:28 23.26340 48.91682 39917 ft 498 kts
2026-04-24 20:28 23.32949 48.93761 39916 ft 498 kts
2026-04-24 20:29 23.39615 48.95855 39929 ft 498 kts
2026-04-24 20:29 23.46274 48.97946 39922 ft 498 kts
2026-04-24 20:30 23.52948 49.00045 39925 ft 499 kts
2026-04-24 20:30 23.59621 49.02145 39925 ft 499 kts
2026-04-24 20:31 23.66247 49.04233 39947 ft 499 kts
2026-04-24 20:31 23.72927 49.06339 39932 ft 500 kts
2026-04-24 20:32 23.79627 49.08454 39925 ft 500 kts
2026-04-24 20:32 23.86320 49.10570 39932 ft 500 kts
2026-04-24 20:33 23.92968 49.12673 39960 ft 500 kts
2026-04-24 20:33 23.99664 49.14794 39941 ft 501 kts
2026-04-24 20:34 24.06374 49.16921 39941 ft 502 kts
2026-04-24 20:34 24.13086 49.19052 39941 ft 502 kts
2026-04-24 20:35 24.19800 49.21186 39959 ft 502 kts
2026-04-24 20:35 24.26490 49.23314 39946 ft 503 kts
2026-04-24 20:36 24.33205 49.25452 39949 ft 503 kts
2026-04-24 20:36 24.39925 49.27595 39950 ft 503 kts
2026-04-24 20:37 24.46649 49.29741 39978 ft 503 kts
2026-04-24 20:37 24.53358 49.31887 39840 ft 497 kts
2026-04-24 20:38 24.56658 49.32946 39621 ft 489 kts
2026-04-24 20:38 24.59913 49.33990 39398 ft 486 kts
2026-04-24 20:38 24.63155 49.35026 39154 ft 484 kts
2026-04-24 20:38 24.66343 49.36047 38801 ft 481 kts
2026-04-24 20:39 24.69558 49.37075 38238 ft 481 kts
2026-04-24 20:39 24.72771 49.38104 37710 ft 480 kts
2026-04-24 20:39 24.75972 49.39131 37202 ft 478 kts
2026-04-24 20:39 24.79165 49.40156 36687 ft 477 kts
2026-04-24 20:40 24.82346 49.41178 36171 ft 476 kts
2026-04-24 20:40 24.85527 49.42199 35637 ft 475 kts
2026-04-24 20:40 24.88709 49.43222 35077 ft 475 kts
2026-04-24 20:40 24.91884 49.44243 34461 ft 476 kts 10°
2026-04-24 20:41 24.95076 49.45268 33732 ft 479 kts 10°
2026-04-24 20:41 24.98304 49.46306 32772 ft 486 kts 10°
2026-04-24 20:41 25.01566 49.47355 31853 ft 491 kts 10°
2026-04-24 20:41 25.04867 49.48419 30879 ft 497 kts 11°
2026-04-24 20:42 25.08182 49.49487 29853 ft 503 kts 11°
2026-04-24 20:42 25.11542 49.50573 29088 ft 501 kts 12°
2026-04-24 20:42 25.14870 49.51652 28464 ft 495 kts 12°
2026-04-24 20:42 25.18171 49.52722 27798 ft 490 kts 12°
2026-04-24 20:43 25.21397 49.53766 27144 ft 486 kts 12°
2026-04-24 20:43 25.24629 49.54812 26484 ft 482 kts 12°
2026-04-24 20:43 25.27838 49.55851 25827 ft 478 kts 12°
2026-04-24 20:43 25.31019 49.56881 25161 ft 475 kts 13°
2026-04-24 20:44 25.34184 49.57906 24510 ft 472 kts 13°
2026-04-24 20:44 25.37327 49.58924 23842 ft 469 kts 13°
2026-04-24 20:44 25.40454 49.59938 23100 ft 467 kts 13°
2026-04-24 20:44 25.43578 49.60948 22314 ft 464 kts 13°
2026-04-24 20:45 25.46638 49.61927 21563 ft 461 kts 13°
2026-04-24 20:45 25.49709 49.62899 20830 ft 457 kts 13°
2026-04-24 20:45 25.52762 49.63853 20110 ft 453 kts 13°
2026-04-24 20:45 25.55797 49.64800 19407 ft 450 kts 13°
2026-04-24 20:46 25.58803 49.65732 18721 ft 446 kts 13°
2026-04-24 20:46 25.61780 49.66647 18017 ft 442 kts 13°
2026-04-24 20:46 25.64729 49.67546 17246 ft 438 kts 13°
2026-04-24 20:46 25.67627 49.68421 16507 ft 433 kts 13°
2026-04-24 20:47 25.70524 49.69319 15775 ft 429 kts 15°
2026-04-24 20:47 25.73324 49.70409 15141 ft 424 kts 20°
2026-04-24 20:47 25.76021 49.71680 14547 ft 416 kts 22°
2026-04-24 20:47 25.78646 49.72966 14057 ft 408 kts 23°
2026-04-24 20:48 25.81210 49.74229 13649 ft 397 kts 23°
2026-04-24 20:48 25.83685 49.75459 13410 ft 382 kts 23°
2026-04-24 20:48 25.86064 49.76639 13204 ft 367 kts 23°
2026-04-24 20:48 25.88347 49.77773 13034 ft 353 kts 23°
2026-04-24 20:49 25.90551 49.78869 12866 ft 339 kts 23°
2026-04-24 20:49 25.92667 49.79922 12645 ft 329 kts 23°
2026-04-24 20:49 25.94741 49.80954 12305 ft 324 kts 23°
2026-04-24 20:49 25.96788 49.81971 11926 ft 321 kts 23°
2026-04-24 20:50 25.98790 49.82962 11549 ft 318 kts 23°
2026-04-24 20:50 26.00808 49.83957 11176 ft 315 kts 23°
2026-04-24 20:50 26.02809 49.84940 10798 ft 312 kts 23°
2026-04-24 20:50 26.04790 49.85910 10439 ft 310 kts 23°
2026-04-24 20:51 26.06755 49.86868 10009 ft 308 kts 23°
2026-04-24 20:51 26.08737 49.87829 9493 ft 311 kts 23°
2026-04-24 20:51 26.10711 49.88781 9115 ft 307 kts 22°
2026-04-24 20:51 26.12771 49.89243 8722 ft 301 kts 357°
2026-04-24 20:52 26.14797 49.88873 8237 ft 300 kts 342°
2026-04-24 20:52 26.16809 49.88147 7485 ft 309 kts 340°
2026-04-24 20:52 26.18900 49.87423 6716 ft 318 kts 343°
2026-04-24 20:52 26.21026 49.86775 5958 ft 315 kts 344°
2026-04-24 20:53 26.23106 49.86150 5195 ft 305 kts 344°
2026-04-24 20:53 26.25122 49.85520 4440 ft 296 kts 343°
2026-04-24 20:53 26.27081 49.84908 3683 ft 288 kts 344°
2026-04-24 20:53 26.28970 49.84324 3155 ft 273 kts 343°
2026-04-24 20:54 26.30156 49.83958 2935 ft 260 kts 342°
2026-04-24 20:54 26.31835 49.83436 2683 ft 241 kts 343°
2026-04-24 20:54 26.33395 49.82950 2426 ft 225 kts 343°
2026-04-24 20:54 26.35326 49.82349 2076 ft 208 kts 344°
2026-04-24 20:55 26.36250 49.82062 1899 ft 199 kts 344°
2026-04-24 20:55 26.37550 49.81658 1649 ft 188 kts 345°
2026-04-24 20:55 26.38758 49.81283 1403 ft 177 kts 345°
2026-04-24 20:55 26.39896 49.80929 1170 ft 162 kts 345°
2026-04-24 20:56 26.40934 49.80606 975 ft 148 kts 345°
2026-04-24 20:56 26.41894 49.80308 794 ft 140 kts 343°
2026-04-24 20:56 26.42826 49.80017 634 ft 138 kts 343°
2026-04-24 20:56 26.43745 49.79731 431 ft 137 kts 343°
2026-04-24 20:57 26.44658 49.79447 259 ft 136 kts 343°
2026-04-24 20:57 26.45564 49.79165 91 ft 132 kts 343°
2026-04-24 20:57 26.46301 49.78936 87 ft 82 kts 344°
2026-04-24 20:57 26.46721 49.78805 84 ft 55 kts 344°
2026-04-24 20:58 26.46997 49.78726 85 ft 31 kts 357°
2026-04-24 20:58 26.47174 49.78738 85 ft 17 kts 11°
2026-04-24 20:58 26.47288 49.78766 81 ft 16 kts 14°
2026-04-24 20:58 26.47396 49.78799 83 ft 16 kts 20°
2026-04-24 20:59 26.47447 49.78854 85 ft 8 kts 65°
2026-04-24 20:59 26.47444 49.78908 85 ft 2 kts 139°
2026-04-24 20:59 26.47429 49.78908 81 ft 3 kts 173°
2026-04-24 20:59 26.47394 49.78913 84 ft 6 kts 168°
2026-04-24 21:00 26.47342 49.78929 85 ft 9 kts 165°
2026-04-24 21:00 26.47271 49.78953 84 ft 12 kts 163°
2026-04-24 21:00 26.47180 49.78982 85 ft 15 kts 164°
2026-04-24 21:00 26.47071 49.79016 84 ft 16 kts 163°
2026-04-24 21:01 26.47007 49.79038 85 ft 9 kts 159°
2026-04-24 21:01 26.46974 49.79099 81 ft 10 kts 85°
2026-04-24 21:01 26.46997 49.79174 82 ft 11 kts 72°
2026-04-24 21:01 26.47018 49.79249 69 ft 0 kts 72°
2026-04-24 21:02 26.47023 49.79265 63 ft 4 kts 72°
2026-04-24 21:02 26.47034 49.79307 70 ft 7 kts 77°
2026-04-24 21:02 26.47017 49.79362 63 ft 9 kts 142°
2026-04-24 21:02 26.46955 49.79398 69 ft 12 kts 155°
2026-04-24 21:03 26.46871 49.79436 68 ft 13 kts 160°
2026-04-24 21:03 26.46827 49.79461 69 ft 4 kts 130°
2026-04-24 21:03 26.46828 49.79471 65 ft 1 kts 73°
2026-04-24 21:03 26.46835 49.79481 65 ft 3 kts 58°
2026-04-24 21:04 26.46842 49.79501 63 ft 3 kts 72°
2026-04-24 21:04 26.46844 49.79505 63 ft 0 kts 71°